Location: Breezy Point Observatory
(38.9725°N, 81.7133°W)
Time: 17:42:48
(UTC-05:00)

Hubble Space Telescope - Visible Passes

Search period start: 28 November 2014 00:00
Search period end: 08 December 2014 00:00
Orbit: 546 x 549 km, 28.5° (Epoch: 27 November)

Date Brightness Start Highest point End Pass type
(mag) Time Alt. Az. Time Alt. Az. Time Alt. Az.
28 Nov 2.8 05:31:36 16° SSW 05:32:16 17° S 05:35:00 10° SSE visible
29 Nov 3.0 05:24:32 15° SSW 05:24:35 15° SSW 05:27:05 10° SSE visible
30 Nov 3.2 05:17:28 13° S 05:17:28 13° S 05:19:00 10° SSE visible
01 Dec 3.5 05:10:24 10° S 05:10:24 10° S 05:10:38 10° S visible
